This is the latest recevied weather packets stored in our database for station/object K2NV. If no packets are shown the sender has not sent any weather packets the latest 10 day(s).
| Time | Temp. | Humidity | Pressure | Rain* | Wind** | Luminosity | Snow |
|---|---|---|---|---|---|---|---|
| 1777920857 | 20.56° C | 54% | 1003 hPa | 0 mm | - | - | - |
| 1777920557 | 20.56° C | 52% | 1003.1 hPa | 0 mm | - | - | - |
| 1777920258 | 20° C | 54% | 1003.2 hPa | 0 mm | - | - | - |
| 1777919957 | 20.56° C | 53% | 1003.1 hPa | 0 mm | - | - | - |
| 1777919656 | 20° C | 55% | 1003.2 hPa | 0 mm | - | - | - |
| 1777919358 | 20° C | 56% | 1003.3 hPa | 0 mm | - | - | - |
| 1777919057 | 20° C | 56% | 1003.4 hPa | 0 mm | - | - | - |
| 1777918758 | 19.44° C | 55% | 1003.5 hPa | 0 mm | - | - | - |
| 1777918457 | 19.44° C | 55% | 1003.6 hPa | 0 mm | - | - | - |
| 1777918156 | 19.44° C | 57% | 1003.6 hPa | 0 mm | - | - | - |
| 1777917858 | 18.89° C | 58% | 1003.7 hPa | 0 mm | - | - | - |
| 1777917557 | 18.89° C | 58% | 1003.7 hPa | 0 mm | - | - | - |
| 1777917258 | 18.33° C | 59% | 1003.9 hPa | 0 mm | - | - | - |
| 1777916957 | 18.33° C | 58% | 1004 hPa | 0 mm | - | - | - |
| 1777916657 | 18.33° C | 58% | 1004.2 hPa | 0 mm | - | - | - |
| 1777916358 | 18.33° C | 57% | 1004.2 hPa | 0 mm | - | - | - |
| 1777916057 | 18.33° C | 58% | 1004.3 hPa | 0 mm | - | - | - |
| 1777915756 | 17.78° C | 59% | 1004.3 hPa | 0 mm | - | - | - |
| 1777915458 | 17.78° C | 60% | 1004.4 hPa | 0 mm | - | - | - |
| 1777915161 | 17.78° C | 58% | 1004.4 hPa | 0 mm | - | - | - |
| 1777914857 | 17.78° C | 59% | 1004.5 hPa | 0 mm | - | - | - |
| 1777914559 | 17.22° C | 59% | 1004.6 hPa | 0 mm | - | - | - |
| 1777914258 | 17.22° C | 59% | 1004.6 hPa | 0 mm | - | - | - |
| 1777913957 | 17.22° C | 59% | 1004.7 hPa | 0 mm | - | - | - |
| 1777913658 | 17.22° C | 58% | 1004.7 hPa | 0 mm | - | - | - |
* Rain latest hour (hover to see other rain measurements)
** Current wind speed in m/s (hover to see current wind gust speed)